Regional Weather Roundup
Issued by NWS

Home | Current Version | Previous Version | Graphics & Text | Print | Product List | Glossary On
Versions: 1 2 3 4 5 6 7 8 9 10 11 12 13 14 15 16 17 18 19 20 21 22 23 24 25 26 27 28 29 30 31 32 33 34 35 36 37 38 39 40 41 42 43 44 45 46 47 48 49 50
000
ASUS43 KLSX 010107
RWRMO

WEATHER SUMMARY FOR MISSOURI
NATIONAL WEATHER SERVICE SPRINGFIELD MO
800 PM CDT THU JUL 31 2014

NOTE: "FAIR" INDICATES FEW OR NO CLOUDS BELOW 12,000 FEET WITH NO
       SIGNIFICANT WEATHER AND/OR OBSTRUCTIONS TO VISIBILITY.
       CURRENT SKY AND/OR WEATHER CONDITIONS ARE NOT AVAILABLE FOR
       CHILLICOTHE AND FARMINGTON.

MOZ001>031-035>038-043-044-053-054-010200-
...NORTHERN AND WESTERN MISSOURI...

CITY           SKY/WX    TMP DP  RH WIND       PRES   REMARKS
KANSAS CTY INT MOCLDY    77  57  50 E6        30.04F
KANSAS C DTWN  PTCLDY    80  56  43 E8        30.02F
LEE`S SUMMIT   CLEAR     74  59  59 E6        30.04F
ST JOSEPH      MOCLDY    76  59  55 SE3       30.04S
CHILLICOTHE      N/A     77  59  53 CALM      30.05S
KIRKSVILLE     CLEAR     73  65  75 CALM      30.06S

$$
MOZ066>068-077>081-088>096-101>105-010200-
...SOUTHWEST MISSOURI...

CITY           SKY/WX    TMP DP  RH WIND       PRES   REMARKS
SPRINGFIELD    PTCLDY    74  65  73 S6        30.06R
JOPLIN         MOCLDY    77  63  61 SE7       30.05R

$$
MOZ032>034-039>042-045>050-055>058-069>072-010200-
...CENTRAL MISSOURI...

CITY           SKY/WX    TMP DP  RH WIND       PRES   REMARKS
COLUMBIA       CLEAR     76  59  55 NE6       30.05S
JEFFERSON CITY CLEAR     81  56  42 N5        30.02S
ROLLA          CLEAR     76  54  46 E3        30.04R
SEDALIA        CLEAR     74  61  63 N6        30.05S
OSAGE BEACH      N/A     75  57  53 N3        30.03S

$$
MOZ051-052-059>065-010200-
...EAST CENTRAL MISSOURI...

CITY           SKY/WX    TMP DP  RH WIND       PRES   REMARKS
ST LOUIS INTL  PTCLDY    80  59  48 E7        30.05R
SPIRIT OF STL  PTCLDY    80  57  45 E6        30.03R
ST CHARLES     CLEAR     77  62  59 N3        30.03S

$$
MOZ072>076-082>087-097>100-106>115-010200-
...SOUTH CENTRAL AND SOUTHEAST MISSOURI...

CITY           SKY/WX    TMP DP  RH WIND       PRES   REMARKS
CAPE GIRARDEAU MOCLDY    73  65  75 S5        30.05F
FARMINGTON     PTCLDY    73  64  73 S7        30.08S
POPLAR BLUFF   PTCLDY    72  64  76 CALM      30.05S
WEST PLAINS    PTCLDY    71  65  81 S3        30.08S

$$


USA.gov is the U.S. government's official web portal to all federal, state and local government web resources and services.